Regional Weather Roundup
Issued by NWS

Home | Current Version | Previous Version | Graphics & Text | Print | Product List | Glossary On
Versions: 1 2 3 4 5 6 7 8 9 10 11 12 13 14 15 16 17 18 19 20 21 22 23 24 25 26 27 28 29 30 31 32 33 34 35 36 37 38 39 40 41 42 43 44 45 46 47 48 49 50
000
ASUS43 KLOT 301221
RWRIL

ILLINOIS REGIONAL WEATHER ROUNDUP
NATIONAL WEATHER SERVICE CHICAGO/ROMEOVILLE IL
700 AM CDT TUE JUN 30 2015

NOTE: "FAIR" INDICATES FEW OR NO CLOUDS BELOW 12,000 FEET WITH NO
SIGNIFICANT WEATHER AND/OR OBSTRUCTIONS TO VISIBILITY.

* THESE STATIONS ARE NOT UNDER NWS QUALITY CONTROL. THEY ALSO MAY NOT
  REPORT WEATHER SUCH AS PRECIPITATION OR FOG.

ILZ001-002-007-009-015-016-024-301300-
NORTHWEST ILLINOIS

CITY           SKY/WX    TMP DP  RH WIND       PRES   REMARKS
MOLINE         PTSUNNY   65  62  90 CALM      29.85R FOG
6HR MIN TEMP:  61; 6HR MAX TEMP:  67;

STERLING*      SUNNY     64  61  88 NW5       29.84S
SAVANNA*       SUNNY     63  61  94 NW5       29.85R FOG
$$

ILZ003-004-008-010-011-017-018-301300-
NORTH CENTRAL ILLINOIS

CITY           SKY/WX    TMP DP  RH WIND       PRES   REMARKS
ROCKFORD       PTSUNNY   62  59  90 NW6       29.84R FOG
6HR MIN TEMP:  60; 6HR MAX TEMP:  64;

FREEPORT*      SUNNY     59  58  97 NW7       29.86R FOG
ROCHELLE*      SUNNY     60  60  99 CALM      29.84R FOG
DE KALB*       MOSUNNY   59  58  97 NW7       29.83R FOG
PERU*          SUNNY     64  63  97 W8        29.84R FOG
$$

ILZ005-006-012>014-019>023-301300-
NORTHEAST ILLINOIS

CITY           SKY/WX    TMP DP  RH WIND       PRES   REMARKS
CHICAGO-OHARE  MOSUNNY   63  60  90 NW6       29.79S
6HR MIN TEMP:  62; 6HR MAX TEMP:  66; 6HR PCP:  0.17;

CHICAGO-MIDWAY PTSUNNY   66  62  87 W6        29.80R
6HR MIN TEMP:  65; 6HR MAX TEMP:  68;

AURORA         SUNNY     62  59  90 W3        29.82R FOG
6HR MIN TEMP:  60; 6HR MAX TEMP:  66; 6HR PCP:  0.02;

LANSING*       MOSUNNY   64  60  89 W5        29.81R
JOLIET*        SUNNY     64  62  94 CALM      29.82R
WAUKEGAN       SUNNY     61  59  93 CALM      29.79R FOG
6HR MIN TEMP:  59; 6HR MAX TEMP:  61;

DUPAGE AIRPORT SUNNY     62  60  93 W3        29.81R
6HR MIN TEMP:  61; 6HR MAX TEMP:  66; 6HR PCP:  0.01;

KANKAKEE*      MOSUNNY   64  63  96 W6        29.83R
WHEELING       PTSUNNY   63  59  87 VRB3      29.80S
6HR MIN TEMP:  62; 6HR MAX TEMP:  67; 6HR PCP: TRACE;

MORRIS*        SUNNY     63  62  95 W6        29.79R
ROMEOVILLE*    SUNNY     62  62  98 W3        29.82R
NORTHERLY ISL    N/A     66  59  78 W7          N/A
$$

LMZ740>746-301300-
SOUTHERN LAKE MICHIGAN

STATION/POSITION SKY/WX   TEMP    WIND        PRES    VSBY  WAVE
                          AIR SEA DIR/SP/G                  HT/PER
                          (F)     (DEG/KT/KT) (MB)    (MI)  (FT/S)
HARRISON CRIB              64     290/  8/  9   N/A
BURNHAM HARBOR             66     260/  8/  9   N/A
CALUMET HARBOR             64     270/  2/  4   N/A
BURNS HARBOR               65     220/  6/  8 1009.1R
MICHIGAN CITY              64     200/  7/  8   N/A
MICHIGAN CITY 6N           65 65  250/  8/ 10   N/A           0
ST. JOSEPH                 63 63                N/A           1
$$

ILZ025>027-034>036-040-047-049-050-058-095>099-301300-
WEST-CENTRAL ILLINOIS

CITY           SKY/WX    TMP DP  RH WIND       PRES   REMARKS
QUINCY         SUNNY     66  64  93 W6        29.88R
GALESBURG*     SUNNY     63  62  98 CALM      29.86R FOG
MACOMB*        SUNNY     65  65  99 W5        29.88R FOG
JACKSONVILLE*  SUNNY     69  66  91 W6        29.87R
PITTSFIELD*    SUNNY     69  65  87 W6        29.90R
$$

ILZ028>032-037-038-041>044-048-051>054-059>061-301300-
CENTRAL ILLINOIS

CITY           SKY/WX    TMP DP  RH WIND       PRES   REMARKS
PONTIAC        SUNNY     65  65  98 W3        29.84S FOG
BLOOMINGTON    MOSUNNY   68  67  96 W7        29.86R
DECATUR        CLOUDY    68  66  93 W3        29.86S
PEORIA         SUNNY     67  62  84 W3        29.85R
6HR MIN TEMP:  64; 6HR MAX TEMP:  67;

LACON*         SUNNY     64  62  93 CALM      29.83S
LINCOLN*       MOSUNNY   68  66  91 CALM      29.86R
SPRINGFIELD    SUNNY     69  65  86 W8        29.86R
6HR MIN TEMP:  67; 6HR MAX TEMP:  69;

TAYLORVILLE    SUNNY     64  64 100 W5        29.87R
$$

ILZ033-039-045-046-055>057-062-063-301300-
EAST-CENTRAL ILLINOIS

CITY           SKY/WX    TMP DP  RH WIND       PRES   REMARKS
CHAMPAIGN      PTSUNNY   65  64  97 W5        29.86R FOG
DANVILLE*      CLOUDY    63  63  99 CALM      29.82R FOG
RANTOUL*       CLOUDY    67  65  96 W3        29.85R FOG
MATTOON        MOSUNNY   67  64  90 SW6       29.86R
PARIS*         MOSUNNY   66  65  97 SW7       29.86R FOG
$$

ILZ079-100>102-301300-
SOUTHWEST ILLINOIS

CITY           SKY/WX    TMP DP  RH WIND       PRES   REMARKS
ALTON          SUNNY     66  66 100 W5        29.89R FOG
BELLEVILLE     SUNNY     68  68 100 CALM      29.88R
CAHOKIA*       SUNNY     70  66  87 CALM      29.89R
SPARTA*        SUNNY     69  67  93 W5        29.91R
$$

ILZ064>066-069>071-074>076-080>082-084>086-088>090-092>094-301300-
SOUTH-CENTRAL ILLINOIS

CITY           SKY/WX    TMP DP  RH WIND       PRES   REMARKS
CARBONDALE     SUNNY     69  67  93 CALM      29.89R
6HR MIN TEMP:  67; 6HR MAX TEMP:  73;

CAIRO*         SUNNY     74  70  88 CALM      29.90S
EFFINGHAM*     MOSUNNY   68  64  88 SW3       29.89R
MARION         SUNNY     70  68  94 SW5       29.90R
MT. VERNON     SUNNY     68  63  83 CALM      29.90R
CENTRALIA*     SUNNY     69  65  89 SW6       29.89R
SALEM*         SUNNY     71  67  88 SW6       29.89R
METROPOLIS*    SUNNY     68  68 100 CALM      29.91S FOG
$$

ILZ067-068-072-073-078-083-087-091-301300-
SOUTHEAST ILLINOIS

CITY           SKY/WX    TMP DP  RH WIND       PRES   REMARKS
LAWRENCEVILLE  SUNNY     69  66  90 W5        29.87R
FLORA*         SUNNY     67  65  94 SW3       29.88R
FAIRFIELD*     SUNNY     67  65  91 CALM      29.87S
HARRISBURG*    SUNNY     67  67 100 CALM      29.89S
ROBINSON*      SUNNY     67  65  93 SW5       29.87R
CARMI*         SUNNY     68  62  82 W5        29.87S
$$

ABBREVIATIONS USED IN REMARKS
   TC - TEMPERATURE IN CELSIUS
  WCI - WIND CHILL INDEX
   HX - HEAT INDEX
  VSB - VISIBILITY
$$



USA.gov is the U.S. government's official web portal to all federal, state and local government web resources and services.